Location: Murols
(44.7566°N, 2.5776°E)
Time: 14:43:12
(UTC+00:00)

Daily predictions for brighter satellites

Satellite Brightness Start Highest point End
(mag) Time Altitude Azimuth Time Altitude Azimuth Time Altitude Azimuth
NOSS 3-4 (A) 4.5 19:58:27 10° NW 20:05:21 59° WSW 20:13:15 10° SSE
NOSS 3-4 (C) 4.4 19:58:30 10° NW 20:05:24 59° WSW 20:13:16 10° SSE
Cosmos 1633 Rocket 3.2 20:06:18 10° N 20:10:42 79° W 20:15:03 10° S
Cosmos 1190 Rocket 4.3 20:06:53 10° S 20:11:59 51° ESE 20:17:07 10° NNE
Orbus 7S? 4.4 20:05:59 10° WSW 20:13:09 65° NW 20:16:36 10° NE
CZ-4B R/B 4.3 20:08:18 10° S 20:13:17 43° W 20:18:22 10° NNW
Okean O Rocket 2.4 20:11:02 10° S 20:15:21 54° W 20:19:40 10° NNW
SeaSat 1 2.9 20:12:52 10° SE 20:17:37 51° ENE 20:22:23 10° NNW
Cosmos 1766 3.2 20:14:26 10° N 20:18:13 90° NNW 20:21:58 10° S
EXPRESS MD2 2.5 20:15:43 10° SW 20:19:06 52° SSE 20:21:26 10° ENE
CZ-4 R/B 4.1 20:20:00 10° SW 20:22:33 16° W 20:25:07 10° NW
Cosmos 1470 Rocket 3.5 20:18:19 10° N 20:22:42 86° ENE 20:27:02 10° S
Cosmos 2026 Rocket 4.2 20:16:56 10° SSW 20:23:06 76° W 20:29:14 10° N
Cosmos 1066 Rocket 4.4 20:17:39 10° S 20:23:31 87° WNW 20:29:20 10° N
USA 234 3.2 20:17:24 10° NE 20:23:57 69° SE 20:30:27 10° SW
IRIDIUM 104 4.4 20:22:11 10° N 20:27:27 86° E 20:32:40 10° S
IRS-1A Rocket 4.4 20:24:00 10° SSE 20:29:26 65° ENE 20:34:53 10° N
Cosmos 2360 Rocket 4.0 20:26:44 10° N 20:30:51 20° NE 20:34:55 10° E
Meteor 2-12 Rocket 4.5 20:25:16 10° S 20:31:22 70° E 20:37:30 10° NNE
MOS 1 Rocket 4.4 20:26:47 10° SE 20:31:44 38° ENE 20:36:38 10° N
Cosmos 2285 Rocket 4.4 20:27:12 10° SSW 20:33:30 71° WNW 20:39:55 10° NNE
Cosmos 2333 Rocket 4.0 20:31:24 10° N 20:35:37 20° NE 20:39:48 10° E
IRIDIUM 114 4.5 20:31:21 10° N 20:36:36 79° W 20:41:48 10° S
Atlas Centaur 2 3.9 20:30:15 10° SW 20:36:59 28° S 20:43:36 10° ESE
ERS-1 Rocket 3.1 20:33:16 10° SSE 20:38:12 61° ENE 20:43:10 10° N
Cosmos 1441 Rocket 3.6 20:35:31 10° N 20:38:58 43° ENE 20:41:54 13° SE
SL-16 R/B 3.0 20:33:41 10° NNW 20:39:00 39° NE 20:43:56 12° ESE
Resurs 01 Rocket 3.8 20:36:37 10° SSW 20:40:10 24° W 20:43:46 10° NW
Cosmos 1763 Rocket 3.6 20:35:16 10° NNW 20:40:33 84° WSW 20:45:43 10° SSE
Cosmos 2369 3.9 20:35:00 10° NNW 20:40:43 72° WSW 20:46:25 10° SSE
Lacrosse 5 rocket 4.1 20:40:51 10° WSW 20:41:16 10° WSW 20:41:42 10° SW
RESURS DK-1 4.1 20:39:06 10° N 20:42:14 21° NE 20:45:21 10° E
Cosmos 2082 Rocket 2.6 20:36:36 10° SSW 20:42:17 70° WNW 20:47:59 10° NNE
Spot 2 Rocket 3.9 20:38:13 11° SE 20:42:49 50° ENE 20:47:44 10° N
Cosmos 1933 Rocket 3.6 20:42:34 10° N 20:47:01 81° E 20:51:18 11° S
SPOT 5 2.8 20:43:12 10° S 20:47:29 69° WSW 20:51:50 10° NNW
Cosmos 1470 2.6 20:43:54 10° N 20:47:37 87° WSW 20:51:09 11° S
Cosmos 1300 4.3 20:48:25 10° NNE 20:51:01 19° ENE 20:52:53 13° ESE
Cosmos 1908 3.0 20:51:12 10° N 20:54:48 77° E 20:57:41 15° SSE
Cosmos 1674 3.9 20:56:03 10° SSW 20:59:18 38° WNW 21:02:34 10° N
IRS-1C Rocket 4.4 20:54:18 10° S 20:59:30 68° WSW 21:04:46 10° NNW
Cosmos 1346 Rocket 4.4 20:56:33 10° NNE 20:59:33 21° ENE 21:01:35 14° ESE
ATLAS 2AS CENTAUR R/B 3.8 20:55:09 10° NNW 21:01:27 36° NE 21:07:32 10° ESE
Meteor 1-22 Rocket 4.4 20:58:19 10° N 21:03:54 62° ENE 21:08:27 17° SSE
Ariane Rocket 3.0 21:03:07 15° SSE 21:07:17 79° ENE 21:12:24 10° NNW
Cosmos 468 Rocket 4.1 21:02:28 10° NNW 21:07:42 73° WSW 21:11:55 16° S
Cosmos 1758 4.1 21:07:13 10° N 21:10:52 36° ENE 21:12:54 21° SE
Cosmos 1356 Rocket 4.3 21:09:23 20° SE 21:11:29 32° E 21:15:15 10° NNE
Helios 1B 4.5 21:07:35 10° NNE 21:11:55 72° ESE 21:15:51 12° S
COSMOS 2406 4.3 21:10:03 10° SW 21:15:36 49° WNW 21:21:11 10° NNE
SPOT 3 Rocket 3.5 21:12:14 17° SSE 21:16:15 86° ENE 21:21:26 10° NNW
Cosmos 1850 Rocket 4.4 21:13:25 16° S 21:17:16 43° ESE 21:22:12 10° NNE
Meteor 1-13 Rocket 4.4 21:12:16 10° SSW 21:18:06 80° W 21:23:51 10° N
Cosmos 1707 Rocket 4.2 21:16:10 21° SSE 21:18:35 39° E 21:22:44 10° NNE
SL-27 R/B 3.7 21:19:33 18° E 21:19:33 18° E 21:21:08 10° NE
Cosmos 1980 Rocket 4.0 21:18:41 10° NW 21:23:14 25° WSW 21:27:44 10° SSW
Cosmos 2322 Rocket 2.6 21:18:08 10° NNW 21:23:42 54° ENE 21:27:28 21° SE
S3M 4.0 21:17:37 10° N 21:24:03 89° W 21:29:07 17° S
Spot 1 4.3 21:20:50 10° NNE 21:25:16 59° ESE 21:28:33 19° S
Cosmos 1655 Rocket 4.1 21:22:56 15° S 21:28:18 70° E 21:34:41 10° NNE
SJ 16-02 2.5 21:28:53 22° ESE 21:29:51 24° E 21:33:21 10° NE
Cosmos 2278 3.9 21:26:55 10° NNW 21:32:37 68° WSW 21:36:25 21° S
Landsat 5 3.4 21:28:42 10° NNE 21:32:39 65° ESE 21:35:02 24° S
Landsat 4 4.2 21:32:54 21° SSW 21:34:52 47° W 21:38:13 10° NNW
Cosmos 1741 Rocket 4.1 21:31:50 17° S 21:35:46 60° ESE 21:40:59 10° NNE
USA 281 3.9 21:32:45 17° ESE 21:37:31 44° NE 21:43:41 10° NNW
Tiangong -0.7 21:35:02 10° WSW 21:37:28 23° SSW 21:37:28 23° SSW
Cosmos 2266 Rocket 4.3 21:31:46 10° SSW 21:38:02 72° W 21:44:27 10° N
Cosmos 1400 Rocket 3.0 21:35:14 15° SSW 21:38:22 65° WNW 21:42:14 10° N
MetOp-A 4.0 21:37:25 25° SSE 21:40:30 76° ENE 21:45:47 10° N
Okean 3 3.9 21:39:26 30° SE 21:40:55 43° E 21:44:53 10° NNE
Terra 2.8 21:37:47 14° SSW 21:41:31 39° W 21:45:57 10° NNW
Cosmos 1733 Rocket 3.1 21:37:48 10° N 21:42:11 67° E 21:44:16 30° SSE
Cosmos 968 Rocket 3.7 21:41:01 24° S 21:43:49 51° ESE 21:48:50 10° NNE
SL-4 R/B 3.8 21:43:18 10° WNW 21:46:49 31° N 21:50:32 10° ENE
Cosmos 2228 Rocket 3.1 21:44:42 22° S 21:47:36 89° WSW 21:52:12 10° N
Cosmos 1315 Rocket 3.7 21:51:04 29° ESE 21:51:46 31° E 21:55:19 10° NNE
Cosmos 2219 Rocket 3.1 21:47:03 10° NNW 21:52:20 38° NE 21:55:47 20° ESE
ATLAS CENTAUR R/B 0.9 21:52:13 40° S 21:53:15 61° ESE 21:56:46 10° NE
SeaSat 1 4.1 21:51:57 13° SSW 21:55:16 24° WSW 21:59:13 10° NW
Meteor 2-10 Rocket 3.9 21:51:42 10° NNW 21:57:15 64° W 22:00:34 23° S
Cosmos 1953 3.2 21:56:28 10° N 21:59:58 33° ENE 22:00:51 29° ESE
H-2A R/B 4.1 21:59:30 20° E 22:01:10 25° ENE 22:04:40 10° NNE
Cosmos 1455 3.1 22:00:04 10° NNE 22:03:10 29° ENE 22:03:41 28° E
Cosmos 1242 Rocket 4.3 22:04:20 14° ENE 22:04:20 14° ENE 22:05:09 10° NE
Okean 1-7 3.3 22:04:57 38° SE 22:06:10 51° E 22:10:23 10° NNE
USA 234 4.3 22:00:34 10° NE 22:06:47 48° NNW 22:12:58 10° W
BREEZE-M DEB (TANK) 2.1 22:06:15 10° WNW 22:08:25 87° SSW 22:09:06 50° ESE
CZ-2C R/B 3.8 22:05:58 10° NNE 22:10:18 56° E 22:11:36 40° SSE
ALOS 2 4.4 22:11:53 17° E 22:13:38 21° ENE 22:16:55 10° NNE
Cosmos 2360 Rocket 2.2 22:09:50 10° NNW 22:15:33 81° WSW 22:18:06 34° SSE
RESURS DK-1 3.1 22:16:18 10° NW 22:20:08 41° WSW 22:21:10 34° SSW
Cosmos 2333 Rocket 2.2 22:14:49 10° NNW 22:20:35 81° WSW 22:23:08 35° SSE
SL-16 R/B 3.3 22:17:56 10° NW 22:23:01 35° WSW 22:25:47 22° SSW
Atlas Centaur 2 3.9 22:18:45 10° WSW 22:25:17 26° SSW 22:25:49 26° S
Cosmos 1300 4.2 22:22:42 10° NNW 22:25:44 26° W 22:26:54 22° WSW
EXPRESS MD2 4.4 22:24:44 10° WNW 22:26:41 23° N 22:27:54 15° NE
SL-08 R/B 4.4 22:25:46 33° S 22:28:41 75° E 22:34:46 10° NNE
BREEZE-M DEB (TANK) 4.4 22:13:52 10° W 22:31:22 64° NNW 22:35:43 10° ENE
Aureole 3 4.1 22:30:50 29° SW 22:32:22 47° WNW 22:36:42 10° N
Cosmos 1703 Rocket 3.6 22:32:44 48° SSE 22:33:48 66° E 22:38:13 10° NNE
Cosmos 1833 4.3 22:30:08 20° SSW 22:34:09 76° WNW 22:39:48 10° NNE
Cosmos 1346 Rocket 4.2 22:32:02 10° NNW 22:35:25 29° W 22:36:35 24° SW
DNEPR-1 R/B 4.4 22:30:41 10° NW 22:37:24 75° NE 22:39:56 34° SE
Meteor 1-4 Rocket 3.2 22:41:49 35° W 22:42:03 35° WNW 22:44:51 10° N
Cosmos 1932 4.4 22:38:31 21° SSW 22:43:00 87° SE 22:49:19 10° NE
Cosmos 839 Rocket 4.0 22:38:10 10° NW 22:45:03 81° WSW 22:47:42 37° SSE
Cosmos 2322 4.1 22:41:24 10° NNW 22:47:01 58° ENE 22:49:30 32° SE
BlueWalker 3 4.0 22:50:03 16° E 22:50:03 16° E 22:50:58 10° ENE
Cosmos 2237 Rocket 4.1 22:43:25 10° N 22:47:52 23° NE 22:52:16 10° E
SL-27 R/B 4.5 22:50:57 14° W 22:51:58 16° WNW 22:53:50 10° NNW
ATLAS 2AS CENTAUR R/B 2.8 22:46:03 10° NW 22:52:43 60° WSW 22:55:16 37° S
Cosmos 2333 4.5 22:47:12 10° NNW 22:52:51 58° WSW 22:54:50 38° SSW
Cosmos 2227 Rocket 4.4 22:53:35 10° E 22:54:12 11° E 22:55:20 10° E
ARIANE 5 R/B 3.0 22:54:59 42° SW 22:55:54 50° W 23:00:08 10° NNW
SL-24 R/B - RUBIN 2 4.4 22:52:12 10° NW 22:58:52 90° NE 23:01:28 38° SE
Okean 2 4.4 23:00:22 30° WSW 23:01:35 38° WNW 23:05:21 10° N
PSLV R/B 4.4 22:57:54 10° N 23:01:49 53° WNW 23:02:51 40° WSW
Cosmos 1703 4.2 23:06:48 33° E 23:06:48 33° E 23:09:54 10° NNE
Cosmos 2322 Rocket 3.7 23:02:52 10° NW 23:07:21 24° WSW 23:09:15 20° SW
Cosmos 1570 Rocket 4.0 23:02:23 10° NNW 23:07:45 87° ENE 23:09:22 47° SSE
Cosmos 1745 Rocket 4.0 23:05:11 38° S 23:07:51 90° WNW 23:14:15 10° N
SJ 16-02 2.8 23:05:35 19° WSW 23:08:02 32° WNW 23:11:57 10° N
PSLV R/B 4.3 23:04:55 10° NNE 23:08:50 36° E 23:08:58 36° ESE
COSMOS 2455 3.2 23:08:59 39° SE 23:10:15 45° ESE 23:15:58 10° NE
Cosmos 2297 Rocket 3.1 23:13:10 30° ESE 23:13:59 31° ESE 23:18:54 10° NE
Nadezhda 1 Rocket 4.1 23:13:03 10° NNW 23:19:19 68° W 23:21:42 39° SSW
GP-B 4.2 23:16:47 10° NNW 23:20:48 35° W 23:22:05 29° WSW
Cosmos 1408 3.0 23:22:14 46° N 23:22:14 46° N 23:24:28 10° N
USA 281 3.9 23:19:37 30° SSW 23:22:01 41° WSW 23:28:12 10° NW
SL-4 R/B 3.5 23:22:28 10° NW 23:26:17 38° NNE 23:30:19 10° E
COSMOS 2428 2.6 23:20:40 10° NNW 23:26:23 89° WSW 23:28:13 46° SSE
GEOS 3 Rocket 3.8 23:25:47 10° NE 23:30:48 50° ESE 23:31:28 47° SSE
ATLAS CENTAUR R/B 3.9 23:29:05 10° WNW 23:31:16 15° NW 23:33:30 10° N
Cosmos 1782 Rocket 4.0 23:29:34 10° NNW 23:33:43 46° W 23:34:15 44° WSW
CZ-3 Stage 3 4.2 23:13:14 10° W 23:34:55 33° SW 23:37:06 30° SSW
Cosmos 1242 Rocket 4.4 23:35:32 17° WNW 23:35:32 17° WNW 23:37:12 10° NNW
Cosmos 1953 4.3 23:32:56 10° NW 23:35:31 17° W 23:35:58 17° W
H-2A R/B 3.5 23:35:29 32° WSW 23:35:55 33° W 23:39:50 10° NNW
Cosmos 2219 Rocket 3.0 23:31:07 10° NW 23:36:13 36° WSW 23:37:28 32° SW
Cosmos 1455 4.2 23:35:07 10° NW 23:37:21 16° W 23:37:24 16° W
Cosmos 1892 4.1 23:38:13 24° E 23:38:13 24° E 23:40:46 10° NE
Cosmos 2208 Rocket 4.0 23:33:17 10° NNW 23:38:28 68° WSW 23:39:34 52° SSW
Cosmos 371 Rocket 3.2 23:38:59 59° SSE 23:39:46 73° ESE 23:44:35 10° NNE
Cosmos 158 Rocket 4.0 23:35:40 10° NNW 23:40:58 70° WSW 23:42:07 52° S
Cosmos 836 Rocket 4.4 23:38:10 10° NNW 23:43:23 76° WSW 23:44:34 53° S
Cosmos 773 Rocket 4.0 23:43:11 10° NNW 23:48:20 75° ENE 23:49:51 46° SE
Cosmos 2151 Rocket 4.0 23:44:57 10° N 23:49:16 51° ENE 23:50:03 44° ESE
ALOS 2 3.2 23:49:16 40° WSW 23:49:41 41° W 23:53:52 10° NNW
Cosmos 2263 Rocket 4.3 23:50:27 11° ESE 23:51:51 12° E 23:53:52 10° ENE
Cosmos 1503 Rocket 4.0 23:51:55 52° S 23:53:11 73° ESE 23:58:30 10° NNE
